Hourly Weather Roundup
Issued by NWS Central Illinois

Home | Current Version | Previous Version | Text Only | Print | Product List | Glossary On
Versions: 1 2 3 4 5 6 7 8 9 10 11 12 13 14 15 16 17 18 19 20 21 22 23 24 25 26 27 28 29 30 31 32 33 34 35 36 37 38 39 40 41 42 43 44 45 46 47 48 49 50
000
NZUS43 KILX 180810
HWRILX

AREA WEATHER ROUNDUP
NATIONAL WEATHER SERVICE, LINCOLN IL
200 AM CST WED JAN 18 2017


CITY           SKY/WX    TMP DP  RH WIND       PRES   REMARKS
BLOOMINGTON    CLOUDY    34  33  96 W15       30.13R FOG     WCI  24
CHAMPAIGN      CLOUDY    37  35  92 W15       30.13R FOG     WCI  28
DANVILLE       CLOUDY    35  34  96 W12G18    30.09R FOG     WCI  27
DECATUR        CLOUDY    37  35  92 W15G23    30.14R WCI  28
EFFINGHAM      CLOUDY    38  38  98 W9        30.18R WCI  32
FLORA          CLOUDY    41  37  85 W12       30.18S WCI  34
GALESBURG      CLOUDY    34  34 100 W6        30.14R FOG     WCI  29
JACKSONVILLE   CLOUDY    37  34  88 W10       30.17R WCI  30
LACON          CLOUDY    33  33  98 W6        30.12R FOG     WCI  28
LAWRENCEVILLE  CLOUDY    40  37  89 W9        30.17R WCI  34
LITCHFIELD     CLOUDY    36  34  93 W12       30.18R WCI  28
$$


CITY           SKY/WX    TMP DP  RH WIND       PRES   REMARKS
LINCOLN        CLOUDY    38  37  95 W6        30.15R WCI  33
MACOMB         CLOUDY    36  35  97 W8        30.17R WCI  29
MATTOON        CLOUDY    37  35  92 W15       30.14R WCI  28
MT CARMEL AP   CLOUDY    40  36  86 W10       30.17R WCI  33
OLNEY-NOBLE AP CLOUDY    37  37 100 W8        30.18R WCI  31
PARIS          CLOUDY    37  36  96 W14       30.15R WCI  28
PEORIA         CLOUDY    35  33  92 W9        30.14R WCI  28
PONTIAC        CLOUDY    35  35 100 W13       30.13R WCI  26
RANTOUL        CLOUDY    37  36  96 W15       30.12R FOG     WCI  28
SPRINGFIELD    CLOUDY    39  35  86 W12       30.16R WCI  32
TAYLORVILLE    CLOUDY    37  34  90 W9G20     30.16R WCI  30
$$

...REGIONAL REPORTS...


CITY           SKY/WX    TMP DP  RH WIND       PRES   REMARKS
CHICAGO O`HARE DRIZZLE   34  33  96 W8        30.03R FOG     WCI  27
KANKAKEE       CLOUDY    34  32  92 W15       30.10R WCI  24
MOLINE         CLOUDY    35  32  88 W12       30.11R FOG     WCI  27
MOUNT STERLING CLOUDY    36  32  86 W10G16    30.16R WCI  28
MOUNT VERNON   CLOUDY    40  36  86 W5        30.18S
PITTSFIELD     CLOUDY    37  33  84 W13       30.18R WCI  29
QUINCY         CLOUDY    36  32  85 W10       30.17R WCI  28
ROCKFORD       CLOUDY    35  33  92 W8        30.07R FOG     WCI  29
$$


CITY           SKY/WX    TMP DP  RH WIND       PRES   REMARKS
BURLINGTON     CLOUDY    36  35  96 W8        30.14R WCI  30
CEDAR RAPIDS   CLOUDY    32  32 100 W9        30.09R FOG     WCI  24
DES MOINES     CLOUDY    32  30  92 SW9       30.12R WCI  24
KIRKSVILLE     CLOUDY    32  30  92 SW3       30.16R
OTTUMWA        CLOUDY    33  28  81 SW20      30.13R WCI  21
ST LOUIS       CLOUDY    41  34  76 W13       30.19R WCI  34
$$


CITY           SKY/WX    TMP DP  RH WIND       PRES   REMARKS
TERRE HAUTE    CLOUDY    38  34  85 W10       30.14R WCI  31
EVANSVILLE     CLOUDY    43  38  82 NW6       30.17R
INDIANAPOLIS   CLOUDY    36  33  89 W14G25    30.10R WCI  27
LAFAYETTE      CLOUDY    35  34  96 W13       30.10R WCI  26
MADISON        CLOUDY    34  33  96 W5        30.02R WCI  30
MILWAUKEE      CLOUDY    36  33  89 W7        30.01R WCI  30
$$






USA.gov is the U.S. government's official web portal to all federal, state and local government web resources and services.